Time,TemperatureF,DewpointF,PressureIn,WindDirection,WindDirectionDegrees,WindSpeedMPH,WindSpeedGustMPH,Humidity,HourlyPrecipIn,Conditions,Clouds,dailyrainin,SoftwareType,DateUTC
2013-04-29 00:02:00,56.0,33.0,-100.00,NW,315,4.0,10.0,43,-99.99,,,-99.99,,2013-04-29 06:02:00,
2013-04-29 00:11:00,56.0,33.0,-100.00,NW,315,4.0,10.0,43,-99.99,,,-99.99,,2013-04-29 06:11:00,
2013-04-29 00:21:00,57.0,34.0,-100.00,NNW,330,1.0,5.0,41,-99.99,,,-99.99,,2013-04-29 06:21:00,
2013-04-29 00:32:00,57.0,34.0,-100.00,NNW,330,1.0,5.0,41,-99.99,,,-99.99,,2013-04-29 06:32:00,
2013-04-29 00:41:00,57.0,33.0,-100.00,NE,45,1.0,3.0,40,-99.99,,,-99.99,,2013-04-29 06:41:00,
2013-04-29 00:52:00,57.0,33.0,-100.00,NE,45,1.0,3.0,40,-99.99,,,-99.99,,2013-04-29 06:52:00,
2013-04-29 01:01:00,57.0,34.0,-100.00,West,275,0.0,5.0,41,-99.99,,,-99.99,,2013-04-29 07:01:00,
2013-04-29 01:11:00,57.0,34.0,-100.00,West,275,0.0,5.0,41,-99.99,,,-99.99,,2013-04-29 07:11:00,
2013-04-29 01:21:00,56.0,33.0,-100.00,North,0,1.0,5.0,41,-99.99,,,-99.99,,2013-04-29 07:21:00,
2013-04-29 01:31:00,56.0,33.0,-100.00,North,0,1.0,5.0,41,-99.99,,,-99.99,,2013-04-29 07:31:00,
2013-04-29 01:41:00,56.0,33.0,-100.00,East,100,1.0,4.0,42,-99.99,,,-99.99,,2013-04-29 07:41:00,
2013-04-29 01:52:00,56.0,33.0,-100.00,East,100,1.0,4.0,42,-99.99,,,-99.99,,2013-04-29 07:52:00,
2013-04-29 02:02:00,55.0,34.0,-100.00,NE,40,1.0,4.0,44,-99.99,,,-99.99,,2013-04-29 08:02:00,
2013-04-29 02:11:00,55.0,34.0,-100.00,NE,40,1.0,4.0,44,-99.99,,,-99.99,,2013-04-29 08:11:00,
2013-04-29 02:21:00,55.0,34.0,-100.00,West,270,2.0,4.0,45,-99.99,,,-99.99,,2013-04-29 08:21:00,
2013-04-29 02:31:00,55.0,34.0,-100.00,West,270,2.0,4.0,45,-99.99,,,-99.99,,2013-04-29 08:31:00,
2013-04-29 02:41:00,54.0,34.0,-100.00,North,10,1.0,4.0,47,-99.99,,,-99.99,,2013-04-29 08:41:00,
2013-04-29 02:52:00,54.0,34.0,-100.00,North,10,1.0,4.0,47,-99.99,,,-99.99,,2013-04-29 08:52:00,
2013-04-29 03:01:00,53.0,34.0,-100.00,NE,45,2.0,4.0,47,-99.99,,,-99.99,,2013-04-29 09:01:00,
2013-04-29 03:11:00,53.0,34.0,-100.00,NE,45,2.0,4.0,47,-99.99,,,-99.99,,2013-04-29 09:11:00,
2013-04-29 03:21:00,52.0,34.0,-100.00,East,90,0.0,3.0,49,-99.99,,,-99.99,,2013-04-29 09:21:00,
2013-04-29 03:32:00,52.0,34.0,-100.00,East,90,0.0,3.0,49,-99.99,,,-99.99,,2013-04-29 09:32:00,
2013-04-29 03:42:00,51.0,34.0,-100.00,East,100,0.0,1.0,51,-99.99,,,-99.99,,2013-04-29 09:42:00,
2013-04-29 03:53:00,51.0,34.0,-100.00,East,100,0.0,1.0,51,-99.99,,,-99.99,,2013-04-29 09:53:00,
2013-04-29 04:02:00,51.0,35.0,-100.00,ENE,75,1.0,3.0,53,-99.99,,,-99.99,,2013-04-29 10:02:00,
2013-04-29 04:12:00,51.0,35.0,-100.00,ENE,75,1.0,3.0,53,-99.99,,,-99.99,,2013-04-29 10:12:00,
2013-04-29 04:22:00,51.0,35.0,-100.00,NE,50,1.0,4.0,55,-99.99,,,-99.99,,2013-04-29 10:22:00,
2013-04-29 04:32:00,51.0,35.0,-100.00,NE,50,1.0,4.0,55,-99.99,,,-99.99,,2013-04-29 10:32:00,
2013-04-29 04:42:00,51.0,35.0,-100.00,NE,50,1.0,4.0,55,-99.99,,,-99.99,,2013-04-29 10:42:00,
2013-04-29 04:52:00,51.0,35.0,-100.00,NE,50,1.0,4.0,55,-99.99,,,-99.99,,2013-04-29 10:52:00,
2013-04-29 05:02:00,49.0,35.0,-100.00,NE,45,2.0,5.0,56,-99.99,,,-99.99,,2013-04-29 11:02:00,
2013-04-29 05:12:00,49.0,35.0,-100.00,NE,45,2.0,5.0,56,-99.99,,,-99.99,,2013-04-29 11:12:00,
2013-04-29 05:21:00,49.0,34.0,-100.00,NNE,20,0.0,5.0,56,-99.99,,,-99.99,,2013-04-29 11:21:00,
2013-04-29 05:32:00,49.0,34.0,-100.00,NNE,20,0.0,5.0,56,-99.99,,,-99.99,,2013-04-29 11:32:00,
2013-04-29 05:41:00,47.0,34.0,-100.00,WSW,250,0.0,1.0,58,-99.99,,,-99.99,,2013-04-29 11:41:00,
2013-04-29 05:52:00,47.0,34.0,-100.00,WSW,250,0.0,1.0,58,-99.99,,,-99.99,,2013-04-29 11:52:00,
2013-04-29 06:01:00,47.0,34.0,-100.00,ESE,105,0.0,1.0,61,-99.99,,,-99.99,,2013-04-29 12:01:00,
2013-04-29 06:11:00,47.0,34.0,-100.00,ESE,105,0.0,1.0,61,-99.99,,,-99.99,,2013-04-29 12:11:00,
2013-04-29 06:21:00,46.0,34.0,-100.00,ENE,70,0.0,7.0,63,-99.99,,,-99.99,,2013-04-29 12:21:00,
2013-04-29 06:31:00,46.0,34.0,-100.00,ENE,70,0.0,7.0,63,-99.99,,,-99.99,,2013-04-29 12:31:00,
2013-04-29 06:41:00,45.0,34.0,-100.00,ENE,65,0.0,4.0,64,-99.99,,,-99.99,,2013-04-29 12:41:00,
2013-04-29 06:52:00,45.0,34.0,-100.00,ENE,65,0.0,4.0,64,-99.99,,,-99.99,,2013-04-29 12:52:00,
2013-04-29 07:01:00,45.0,34.0,-100.00,SW,235,1.0,2.0,65,-99.99,,,-99.99,,2013-04-29 13:01:00,
2013-04-29 07:11:00,45.0,34.0,-100.00,SW,235,1.0,2.0,65,-99.99,,,-99.99,,2013-04-29 13:11:00,
2013-04-29 07:21:00,45.0,35.0,-100.00,ENE,75,0.0,1.0,67,-99.99,,,-99.99,,2013-04-29 13:21:00,
2013-04-29 07:31:00,45.0,35.0,-100.00,ENE,75,0.0,1.0,67,-99.99,,,-99.99,,2013-04-29 13:31:00,
2013-04-29 07:42:00,44.0,35.0,-100.00,WSW,250,1.0,1.0,68,-99.99,,,-99.99,,2013-04-29 13:42:00,
2013-04-29 07:52:00,44.0,35.0,-100.00,WSW,250,1.0,1.0,68,-99.99,,,-99.99,,2013-04-29 13:52:00,
2013-04-29 08:01:00,44.0,35.0,-100.00,WSW,250,1.0,1.0,68,-99.99,,,-99.99,,2013-04-29 14:01:00,
2013-04-29 08:11:00,44.0,35.0,-100.00,WSW,250,1.0,1.0,68,-99.99,,,-99.99,,2013-04-29 14:11:00,
2013-04-29 08:21:00,47.0,36.0,-100.00,WNW,285,7.0,10.0,65,-99.99,,,-99.99,,2013-04-29 14:21:00,
2013-04-29 08:32:00,47.0,36.0,-100.00,WNW,285,7.0,10.0,65,-99.99,,,-99.99,,2013-04-29 14:32:00,
2013-04-29 08:42:00,48.0,36.0,-100.00,West,280,7.0,9.0,62,-99.99,,,-99.99,,2013-04-29 14:42:00,
2013-04-29 08:52:00,48.0,36.0,-100.00,WSW,255,6.0,9.0,61,-99.99,,,-99.99,,2013-04-29 14:52:00,
2013-04-29 09:01:00,50.0,36.0,-100.00,WSW,245,4.0,9.0,58,-99.99,,,-99.99,,2013-04-29 15:01:00,
2013-04-29 09:12:00,50.0,36.0,-100.00,WSW,245,4.0,9.0,58,-99.99,,,-99.99,,2013-04-29 15:12:00,
2013-04-29 09:21:00,53.0,36.0,-100.00,SW,235,6.0,12.0,52,-99.99,,,-99.99,,2013-04-29 15:21:00,
2013-04-29 09:33:00,53.0,36.0,-100.00,SW,235,6.0,12.0,52,-99.99,,,-99.99,,2013-04-29 15:33:00,
2013-04-29 09:42:00,55.0,36.0,-100.00,SW,220,8.0,14.0,48,-99.99,,,-99.99,,2013-04-29 15:42:00,
2013-04-29 09:53:00,55.0,36.0,-100.00,SW,220,8.0,14.0,48,-99.99,,,-99.99,,2013-04-29 15:53:00,
2013-04-29 10:02:00,55.0,36.0,-100.00,SW,220,8.0,14.0,48,-99.99,,,-99.99,,2013-04-29 16:02:00,
2013-04-29 10:12:00,59.0,37.0,-100.00,SW,235,9.0,14.0,42,-99.99,,,-99.99,,2013-04-29 16:12:00,
2013-04-29 10:23:00,62.0,37.0,-100.00,SW,225,11.0,16.0,38,-99.99,,,-99.99,,2013-04-29 16:23:00,
2013-04-29 10:32:00,62.0,37.0,-100.00,SW,225,11.0,16.0,38,-99.99,,,-99.99,,2013-04-29 16:32:00,
2013-04-29 10:42:00,64.0,36.0,-100.00,SW,235,6.0,16.0,35,-99.99,,,-99.99,,2013-04-29 16:42:00,
2013-04-29 10:52:00,64.0,36.0,-100.00,SW,235,6.0,16.0,35,-99.99,,,-99.99,,2013-04-29 16:52:00,
2013-04-29 11:02:00,65.0,35.0,-100.00,WSW,240,10.0,18.0,32,-99.99,,,-99.99,,2013-04-29 17:02:00,
2013-04-29 11:11:00,65.0,35.0,-100.00,WSW,240,10.0,18.0,32,-99.99,,,-99.99,,2013-04-29 17:11:00,
2013-04-29 11:22:00,66.0,34.0,-100.00,SW,235,12.0,20.0,30,-99.99,,,-99.99,,2013-04-29 17:22:00,
2013-04-29 11:32:00,66.0,34.0,-100.00,SW,235,12.0,20.0,30,-99.99,,,-99.99,,2013-04-29 17:32:00,
2013-04-29 11:42:00,67.0,34.0,-100.00,SW,235,8.0,14.0,29,-99.99,,,-99.99,,2013-04-29 17:42:00,
2013-04-29 11:52:00,67.0,34.0,-100.00,SW,235,8.0,14.0,29,-99.99,,,-99.99,,2013-04-29 17:52:00,
2013-04-29 12:01:00,68.0,33.0,-100.00,SW,230,11.0,23.0,28,-99.99,,,-99.99,,2013-04-29 18:01:00,
2013-04-29 12:12:00,68.0,33.0,-100.00,SW,230,11.0,23.0,28,-99.99,,,-99.99,,2013-04-29 18:12:00,
2013-04-29 12:22:00,68.0,33.0,-100.00,WSW,245,10.0,20.0,26,-99.99,,,-99.99,,2013-04-29 18:22:00,
2013-04-29 12:31:00,68.0,33.0,-100.00,WSW,245,10.0,20.0,26,-99.99,,,-99.99,,2013-04-29 18:31:00,
2013-04-29 12:41:00,69.0,33.0,-100.00,SW,230,10.0,22.0,26,-99.99,,,-99.99,,2013-04-29 18:41:00,
2013-04-29 12:52:00,69.0,33.0,-100.00,SW,230,10.0,22.0,26,-99.99,,,-99.99,,2013-04-29 18:52:00,
2013-04-29 13:01:00,70.0,33.0,-100.00,SW,215,9.0,21.0,25,-99.99,,,-99.99,,2013-04-29 19:01:00,
2013-04-29 13:11:00,70.0,33.0,-100.00,SW,215,9.0,21.0,25,-99.99,,,-99.99,,2013-04-29 19:11:00,
2013-04-29 13:21:00,70.0,33.0,-100.00,SW,235,12.0,24.0,24,-99.99,,,-99.99,,2013-04-29 19:21:00,
2013-04-29 13:31:00,70.0,33.0,-100.00,SW,235,12.0,24.0,24,-99.99,,,-99.99,,2013-04-29 19:31:00,
2013-04-29 13:41:00,71.0,33.0,-100.00,SW,230,12.0,21.0,24,-99.99,,,-99.99,,2013-04-29 19:41:00,
2013-04-29 13:52:00,71.0,33.0,-100.00,SW,230,12.0,21.0,24,-99.99,,,-99.99,,2013-04-29 19:52:00,
2013-04-29 14:01:00,71.0,32.0,-100.00,SW,225,14.0,22.0,23,-99.99,,,-99.99,,2013-04-29 20:01:00,
2013-04-29 14:11:00,71.0,32.0,-100.00,SW,225,14.0,22.0,23,-99.99,,,-99.99,,2013-04-29 20:11:00,
2013-04-29 14:21:00,71.0,32.0,-100.00,SW,220,11.0,23.0,23,-99.99,,,-99.99,,2013-04-29 20:21:00,
2013-04-29 14:32:00,71.0,32.0,-100.00,SW,220,11.0,23.0,23,-99.99,,,-99.99,,2013-04-29 20:32:00,
2013-04-29 14:42:00,73.0,33.0,-100.00,SW,225,6.0,22.0,23,-99.99,,,-99.99,,2013-04-29 20:42:00,
2013-04-29 14:52:00,73.0,33.0,-100.00,SW,225,6.0,22.0,23,-99.99,,,-99.99,,2013-04-29 20:52:00,
2013-04-29 15:01:00,73.0,33.0,-100.00,SW,230,11.0,22.0,22,-99.99,,,-99.99,,2013-04-29 21:01:00,
2013-04-29 15:11:00,72.0,33.0,-100.00,SW,215,13.0,26.0,23,-99.99,,,-99.99,,2013-04-29 21:11:00,
2013-04-29 15:21:00,72.0,33.0,-100.00,SW,215,13.0,26.0,23,-99.99,,,-99.99,,2013-04-29 21:21:00,
2013-04-29 15:33:00,72.0,33.0,-100.00,SW,215,13.0,26.0,23,-99.99,,,-99.99,,2013-04-29 21:33:00,
2013-04-29 15:42:00,72.0,33.0,-100.00,SW,215,13.0,26.0,23,-99.99,,,-99.99,,2013-04-29 21:42:00,
2013-04-29 15:53:00,73.0,33.0,-100.00,SSW,210,8.0,18.0,22,-99.99,,,-99.99,,2013-04-29 21:53:00,
2013-04-29 16:02:00,73.0,33.0,-100.00,SSW,210,8.0,18.0,22,-99.99,,,-99.99,,2013-04-29 22:02:00,
2013-04-29 16:13:00,73.0,33.0,-100.00,SSW,210,11.0,21.0,22,-99.99,,,-99.99,,2013-04-29 22:13:00,
2013-04-29 16:23:00,73.0,33.0,-100.00,SSW,210,11.0,21.0,22,-99.99,,,-99.99,,2013-04-29 22:23:00,
2013-04-29 16:32:00,73.0,32.0,-100.00,SSW,210,10.0,22.0,22,-99.99,,,-99.99,,2013-04-29 22:32:00,
2013-04-29 16:42:00,73.0,32.0,-100.00,SSW,210,10.0,22.0,22,-99.99,,,-99.99,,2013-04-29 22:42:00,
2013-04-29 16:52:00,72.0,32.0,-100.00,SSW,210,6.0,21.0,22,-99.99,,,-99.99,,2013-04-29 22:52:00,
2013-04-29 17:02:00,72.0,32.0,-100.00,SSW,210,6.0,21.0,22,-99.99,,,-99.99,,2013-04-29 23:02:00,
2013-04-29 17:11:00,72.0,32.0,-100.00,SW,220,7.0,12.0,22,-99.99,,,-99.99,,2013-04-29 23:11:00,
2013-04-29 17:22:00,72.0,32.0,-100.00,SW,220,7.0,12.0,22,-99.99,,,-99.99,,2013-04-29 23:22:00,
2013-04-29 17:31:00,72.0,32.0,-100.00,SW,220,7.0,12.0,22,-99.99,,,-99.99,,2013-04-29 23:31:00,
2013-04-29 17:42:00,72.0,32.0,-100.00,SW,220,7.0,12.0,22,-99.99,,,-99.99,,2013-04-29 23:42:00,
2013-04-29 17:52:00,72.0,32.0,-100.00,SW,220,7.0,12.0,22,-99.99,,,-99.99,,2013-04-29 23:52:00,
2013-04-29 18:32:00,71.0,31.0,-100.00,SW,225,10.0,24.0,22,-99.99,,,-99.99,,2013-04-30 00:32:00,
2013-04-29 18:41:00,71.0,31.0,-100.00,SW,225,10.0,24.0,22,-99.99,,,-99.99,,2013-04-30 00:41:00,
2013-04-29 18:51:00,70.0,31.0,-100.00,SSW,205,4.0,20.0,22,-99.99,,,-99.99,,2013-04-30 00:51:00,
2013-04-29 19:01:00,70.0,31.0,-100.00,SSW,205,4.0,20.0,22,-99.99,,,-99.99,,2013-04-30 01:01:00,
2013-04-29 19:11:00,70.0,31.0,-100.00,SW,215,7.0,16.0,22,-99.99,,,-99.99,,2013-04-30 01:11:00,
2013-04-29 19:21:00,70.0,31.0,-100.00,SW,215,7.0,16.0,22,-99.99,,,-99.99,,2013-04-30 01:21:00,
2013-04-29 19:31:00,70.0,31.0,-100.00,SW,215,6.0,12.0,22,-99.99,,,-99.99,,2013-04-30 01:31:00,
2013-04-29 19:41:00,70.0,31.0,-100.00,SW,215,6.0,12.0,22,-99.99,,,-99.99,,2013-04-30 01:41:00,
2013-04-29 19:51:00,69.0,31.0,-100.00,WSW,240,4.0,11.0,23,-99.99,,,-99.99,,2013-04-30 01:51:00,
2013-04-29 20:01:00,69.0,31.0,-100.00,WSW,240,4.0,11.0,23,-99.99,,,-99.99,,2013-04-30 02:01:00,
2013-04-29 20:11:00,69.0,30.0,-100.00,SW,220,5.0,7.0,23,-99.99,,,-99.99,,2013-04-30 02:11:00,
2013-04-29 20:21:00,69.0,30.0,-100.00,SW,220,5.0,7.0,23,-99.99,,,-99.99,,2013-04-30 02:21:00,
2013-04-29 20:31:00,68.0,29.0,-100.00,WSW,240,3.0,6.0,23,-99.99,,,-99.99,,2013-04-30 02:31:00,
2013-04-29 20:41:00,68.0,29.0,-100.00,WSW,240,3.0,6.0,23,-99.99,,,-99.99,,2013-04-30 02:41:00,
2013-04-29 20:51:00,66.0,30.0,-100.00,NE,50,1.0,3.0,25,-99.99,,,-99.99,,2013-04-30 02:51:00,
2013-04-29 21:01:00,66.0,30.0,-100.00,NE,50,1.0,3.0,25,-99.99,,,-99.99,,2013-04-30 03:01:00,
2013-04-29 21:11:00,64.0,29.0,-100.00,ENE,65,1.0,4.0,26,-99.99,,,-99.99,,2013-04-30 03:11:00,
2013-04-29 21:21:00,64.0,30.0,-100.00,South,180,0.0,3.0,27,-99.99,,,-99.99,,2013-04-30 03:21:00,
2013-04-29 21:33:00,63.0,30.0,-100.00,ENE,65,1.0,2.0,28,-99.99,,,-99.99,,2013-04-30 03:33:00,
2013-04-29 21:42:00,63.0,30.0,-100.00,ENE,65,1.0,2.0,28,-99.99,,,-99.99,,2013-04-30 03:42:00,
2013-04-29 21:52:00,62.0,30.0,-100.00,East,95,1.0,2.0,30,-99.99,,,-99.99,,2013-04-30 03:52:00,
2013-04-29 22:02:00,62.0,30.0,-100.00,East,95,1.0,2.0,30,-99.99,,,-99.99,,2013-04-30 04:02:00,
2013-04-29 22:12:00,60.0,30.0,-100.00,ESE,115,0.0,2.0,31,-99.99,,,-99.99,,2013-04-30 04:12:00,
2013-04-29 22:22:00,60.0,30.0,-100.00,ESE,115,0.0,2.0,31,-99.99,,,-99.99,,2013-04-30 04:22:00,
2013-04-29 22:32:00,60.0,30.0,-100.00,ESE,115,0.0,2.0,31,-99.99,,,-99.99,,2013-04-30 04:32:00,
2013-04-29 22:42:00,60.0,31.0,-100.00,SW,225,0.0,1.0,32,-99.99,,,-99.99,,2013-04-30 04:42:00,
2013-04-29 22:52:00,58.0,31.0,-100.00,ESE,120,0.0,1.0,34,-99.99,,,-99.99,,2013-04-30 04:52:00,
2013-04-29 23:02:00,58.0,31.0,-100.00,ESE,120,0.0,1.0,34,-99.99,,,-99.99,,2013-04-30 05:02:00,
2013-04-29 23:11:00,58.0,31.0,-100.00,ESE,120,0.0,1.0,34,-99.99,,,-99.99,,2013-04-30 05:11:00,
2013-04-29 23:22:00,58.0,31.0,-100.00,ESE,120,0.0,1.0,34,-99.99,,,-99.99,,2013-04-30 05:22:00,
2013-04-29 23:31:00,56.0,30.0,-100.00,West,280,0.0,1.0,36,-99.99,,,-99.99,,2013-04-30 05:31:00,
2013-04-29 23:42:00,56.0,30.0,-100.00,West,280,0.0,1.0,36,-99.99,,,-99.99,,2013-04-30 05:42:00,
2013-04-29 23:51:00,56.0,31.0,-100.00,South,190,0.0,1.0,37,-99.99,,,-99.99,,2013-04-30 05:51:00,